Location: Be?chatów
(51.3665°N, 19.3745°E)
Time: 19:00:36
(UTC+00:00)

Daily predictions for brighter satellites

Satellite Brightness Start Highest point End
(mag) Time Altitude Azimuth Time Altitude Azimuth Time Altitude Azimuth
USA 234 3.7 19:05:20 10° ENE 19:11:24 39° SE 19:17:28 10° SSW
Resurs 01 Rocket 4.2 19:14:13 10° SW 19:17:18 19° W 19:20:24 10° NW
Terra 1.8 19:12:48 10° SSE 19:17:29 77° ENE 19:22:12 10° NNW
SL-16 R/B 4.4 19:16:09 10° N 19:19:39 16° NNE 19:23:08 10° ENE
Helios 1B rocket 3.4 19:16:28 10° S 19:19:56 39° W 19:23:25 10° NNW
ATLAS CENTAUR R/B 1.6 19:17:39 10° S 19:21:03 36° ESE 19:24:35 10° NE
NOSS 2-3 (D) 4.4 19:18:47 10° WSW 19:22:22 48° NW 19:26:27 10° NE
Cosmos 2344 3.7 19:15:31 10° SW 19:23:04 81° NW 19:30:31 10° NE
SAR-Lupe-2 3.6 19:24:00 10° SSE 19:27:32 68° ENE 19:31:06 10° N
Cosmos 1125 Rocket 3.6 19:23:05 10° NNW 19:28:24 71° ENE 19:33:40 10° SSE
CZ-4B R/B 4.4 19:24:42 10° SSW 19:29:53 41° W 19:35:00 10° NNW
BlueWalker 3 1.8 19:28:59 10° WNW 19:32:37 74° SSW 19:36:16 10° ESE
Cosmos 1346 Rocket 2.6 19:32:25 10° N 19:36:08 77° ENE 19:39:49 10° SSE
Cosmos 1400 Rocket 2.7 19:32:55 10° SSW 19:36:35 81° W 19:40:17 10° N
CZ-4C R/B 3.8 19:31:15 10° NW 19:37:59 46° WSW 19:46:05 10° S
SL-8 Rocket 4.2 19:33:00 10° N 19:39:04 57° ENE 19:45:04 10° SSE
Cosmos 2327 Rocket 4.5 19:33:43 10° N 19:39:56 80° E 19:46:01 10° SSE
IRS-1C Rocket 4.2 19:34:49 10° SSE 19:40:03 74° ENE 19:45:20 10° NNW
CENTAUR R/B 4.4 19:34:53 10° NW 19:41:27 35° NNE 19:49:13 10° ENE
Ariane Rocket 3.3 19:36:54 10° SSE 19:41:51 58° ENE 19:46:50 10° N
Cosmos 1697 Rocket 2.7 19:36:28 10° NNW 19:42:10 85° ENE 19:47:33 11° SSE
Cosmos 44 3.2 19:38:00 10° NW 19:42:33 88° SW 19:46:54 12° SE
Cosmos 1570 Rocket 4.4 19:41:21 10° S 19:46:16 42° ESE 19:51:14 10° NE
Cosmos 1238 Rocket 4.0 19:46:06 13° SE 19:48:16 21° E 19:50:50 10° NE
Lacrosse 5 rocket 1.4 19:46:28 10° WNW 19:49:55 48° SW 19:52:35 15° SSE
Cosmos 1814 Rocket 4.5 19:48:32 10° SW 19:53:37 64° WNW 19:58:48 10° NNE
Cosmos 1867 3.6 19:50:34 10° NW 19:56:04 82° SW 20:00:45 14° SE
Cosmos-2242 3.0 19:52:37 10° S 19:56:53 87° E 20:01:11 10° N
Nadezhda 1 Rocket 4.2 19:51:05 10° SSW 19:57:11 73° WNW 20:03:23 10° N
Cosmos 2150 Rocket 4.4 19:53:47 10° NNW 19:59:08 59° ENE 20:03:40 15° SE
Cosmos 1536 4.0 19:56:53 10° N 20:00:13 28° ENE 20:02:42 15° ESE
Cosmos 2341 Rocket 4.0 19:54:13 10° N 20:00:31 80° E 20:06:24 12° SSE
SeaSat 1 2.9 19:57:02 13° SE 20:01:18 55° NE 20:06:07 10° NNW
Cosmos 2082 Rocket 3.4 20:00:19 14° SE 20:03:30 22° ESE 20:07:44 10° NE
Okean O Rocket 3.5 19:59:57 10° SSW 20:03:38 26° W 20:07:19 10° NW
Cosmos 2221 3.3 20:01:07 15° SE 20:03:54 32° E 20:07:37 10° NNE
Cosmos 1933 4.5 20:00:22 10° SSW 20:04:02 42° WNW 20:07:45 10° N
SPOT 3 Rocket 3.6 20:02:59 12° SSE 20:07:46 85° WSW 20:12:56 10° NNW
Okean-O 4.2 20:05:10 10° SSW 20:09:05 31° W 20:13:02 10° NNW
Okean 1 4.0 20:08:12 18° SE 20:10:21 33° E 20:13:41 10° NNE
ERS-1 Rocket 4.3 20:06:35 10° SSW 20:11:09 35° W 20:15:45 10° NNW
Cosmos 192 4.4 20:08:22 10° NNW 20:13:20 75° ENE 20:17:05 17° SSE
Cosmos 1674 3.8 20:14:42 12° E 20:14:42 12° E 20:15:22 10° ENE
Cosmos 773 Rocket 4.4 20:11:34 12° S 20:15:54 42° ESE 20:20:43 10° NE
ISS -3.6 20:18:01 10° W 20:21:20 58° SSW 20:23:18 22° SE
Cosmos 1766 Rocket 4.4 20:18:23 10° N 20:22:30 37° ENE 20:25:10 19° SE
Spot 2 Rocket 4.4 20:18:03 10° S 20:22:50 44° W 20:27:40 10° NNW
Cosmos 2084 Rocket 3.6 20:19:06 10° SSW 20:23:14 50° SE 20:27:20 10° NE
BREEZE-M R/B 4.0 20:06:35 10° W 20:23:41 69° SSW 20:27:31 14° ESE
NOSS 3-1 (C) 3.0 20:20:21 10° SSW 20:25:08 71° SE 20:31:01 10° NE
ARIANE 6 FM1 Upper Stage 3.0 20:21:16 10° WSW 20:25:15 65° NW 20:29:19 10° NE
Cosmos 2333 Rocket 4.0 20:23:07 10° NNW 20:27:44 24° NE 20:32:18 10° E
Cosmos 1833 Rocket 3.0 20:25:38 10° SW 20:31:17 73° WNW 20:36:57 10° NNE
Cosmos 1356 Rocket 3.4 20:28:38 12° SSW 20:32:28 86° WNW 20:36:36 10° NNE
Cosmos 1733 4.5 20:30:58 10° NNW 20:33:38 26° W 20:36:07 11° SSW
Cosmos 1821 Rocket 3.9 20:29:46 10° N 20:35:56 80° E 20:40:28 19° SSE
Cosmos 2218 Rocket 4.3 20:34:18 10° NNW 20:40:39 68° W 20:46:01 14° S
Cosmos 2219 Rocket 4.5 20:39:45 10° NNW 20:43:37 18° NNE 20:47:26 10° ENE
ALOS 2 4.5 20:42:21 11° ESE 20:45:14 20° ENE 20:48:27 10° NNE
Cosmos 1805 2.8 20:45:37 10° N 20:49:06 90° NNW 20:50:42 30° S
Cosmos 1812 Rocket 3.9 20:48:56 13° SSW 20:52:44 63° WNW 20:57:02 10° N
Cosmos 1980 Rocket 2.4 20:48:21 10° NW 20:53:54 62° WSW 20:57:27 22° S
NOSS 3-1 (A) 3.1 20:50:27 12° SSW 20:54:46 54° SE 21:00:27 10° NE
USA 234 3.3 20:48:17 10° ENE 20:54:52 87° NNW 21:01:26 10° WSW
Terra 4.2 20:52:42 10° SW 20:55:36 16° W 20:58:31 10° NW
ATLAS CENTAUR R/B 2.9 20:53:44 10° WSW 20:57:12 35° NW 21:00:47 10° NNE
Cosmos 1315 Rocket 3.1 20:55:12 16° SSW 20:58:12 64° WNW 21:02:05 10° N
Sich 1 4.5 20:56:12 10° N 20:59:47 26° ENE 21:01:52 18° ESE
BREEZE-M DEB (TANK) 3.9 20:44:43 10° W 21:01:21 76° SSW 21:05:28 13° ESE
Cosmos 2208 Rocket 4.3 20:56:22 10° SSW 21:01:45 71° WNW 21:07:05 10° NNE
Cosmos 2181 Rocket 4.3 20:58:41 11° SSW 21:04:41 71° WNW 21:11:05 10° N
SL-16 R/B 2.8 20:59:39 10° NNW 21:05:11 49° NE 21:09:15 18° ESE
DELTA 2 DEB (DPAF) 3.8 21:02:39 10° NNE 21:06:38 83° WNW 21:09:02 23° SSW
Meteor 1-11 Rocket 3.6 21:02:05 10° NNW 21:07:39 84° ENE 21:10:57 26° SSE
Genesis I 3.5 21:06:07 10° NNW 21:08:43 35° NE 21:09:43 26° E
NOSS 2-1 (C) 4.2 21:09:42 23° E 21:09:42 23° E 21:11:29 10° ENE
BlueWalker 3 3.4 21:07:12 10° W 21:09:55 20° SW 21:10:12 20° SW
Cosmos 2322 Rocket 3.3 21:08:46 10° NNW 21:14:04 38° NE 21:18:38 13° ESE
Cosmos 1975 3.1 21:10:44 10° N 21:14:19 48° ENE 21:15:35 32° SE
Cosmos 2237 4.3 21:08:55 10° NNW 21:14:39 76° ENE 21:18:07 25° SE
Exosat Rocket 4.4 21:10:56 10° NNW 21:15:52 42° NE 21:19:21 17° ESE
Cosmos 1707 4.1 21:18:01 19° E 21:18:19 19° E 21:20:45 10° NE
CZ-4C R/B 3.0 21:14:45 10° NNE 21:18:25 75° ESE 21:19:42 37° S
Spot 4 4.3 21:17:45 25° SE 21:20:15 51° ENE 21:24:53 10° N
Cosmos 1408 Rocket 4.3 21:19:23 10° N 21:23:33 42° ENE 21:25:23 27° SE
Cosmos 1238 Rocket 4.1 21:22:13 13° SW 21:24:59 29° WNW 21:27:55 10° N
ARIANE 5 R/B 2.6 21:23:51 32° SSE 21:25:47 75° ENE 21:30:09 10° NNW
Nadezhda 3 Rocket 4.0 21:21:58 22° S 21:26:13 89° W 21:32:32 10° N
Cosmos 1842 Rocket 3.5 21:25:47 34° SSE 21:27:31 65° E 21:31:48 10° NNE
Cosmos 1805 Rocket 4.4 21:26:27 10° N 21:30:39 40° ENE 21:32:35 26° SE
Cosmos 1766 2.9 21:27:16 10° N 21:30:43 69° ENE 21:31:35 46° SE
Cosmos 2278 3.8 21:25:45 10° NNW 21:31:26 71° ENE 21:34:47 25° SE
Cosmos 1934 Rocket 4.0 21:25:36 10° N 21:31:53 84° E 21:35:32 27° SSE
Cosmos 1470 3.6 21:29:04 10° N 21:32:22 34° ENE 21:33:25 28° ESE
Cosmos 1908 3.4 21:29:43 10° N 21:32:52 44° ENE 21:33:32 38° ESE
CENTAUR R/B 3.7 21:25:55 10° NW 21:33:39 60° NE 21:42:43 10° ESE
Cosmos 2360 Rocket 3.1 21:28:26 10° NNW 21:33:49 43° NE 21:38:04 16° ESE
ATLAS 3B R/B 3.3 21:30:06 24° S 21:34:18 46° ESE 21:41:39 10° NE
USA 229 DEB 4.4 21:33:24 25° SE 21:35:14 29° ESE 21:40:49 10° ENE
USA 229 4.4 21:33:31 25° SE 21:35:20 29° ESE 21:40:53 10° ENE
Cosmos 1536 4.2 21:32:26 10° NNW 21:35:43 28° W 21:37:32 19° SW
Cosmos 2369 4.3 21:33:19 10° NW 21:38:42 45° WSW 21:41:29 26° SSW
SeaSat 1 3.7 21:36:40 20° SSW 21:38:56 29° WSW 21:43:12 10° NW
Cosmos 1339 Rocket 4.4 21:35:53 26° S 21:39:31 82° E 21:45:37 10° NNE
Cosmos 405 Rocket 2.7 21:37:28 10° NNW 21:40:50 56° W 21:41:40 42° SSW
Cosmos 2221 4.1 21:37:29 11° SW 21:41:01 29° WNW 21:44:42 10° N
CZ-2C R/B 3.5 21:37:26 10° NNE 21:41:51 77° ESE 21:43:43 34° S
Cosmos 1674 3.6 21:44:17 19° W 21:44:33 19° WNW 21:46:19 10° NNW
Cosmos 2082 Rocket 2.3 21:42:05 14° SW 21:47:00 74° WNW 21:52:39 10° NNE
Cosmos 1605 Rocket 4.1 21:40:49 10° N 21:47:10 68° ENE 21:50:39 28° SSE
Cosmos 1743 Rocket 4.2 21:44:38 10° N 21:48:57 45° ENE 21:50:45 29° SE
KORONAS-FOTON 3.8 21:48:43 47° SE 21:49:18 55° E 21:52:43 10° NNE
Timation 1 Rocket 4.3 21:47:15 18° SSW 21:51:50 88° WNW 21:57:53 10° NNE
Okean 3 Rocket 3.9 21:53:07 10° NNW 21:57:27 58° W 21:59:09 34° SSW
ISS -1.4 21:55:26 10° W 21:56:12 13° WSW 21:56:12 13° WSW
Landsat 5 3.4 21:54:26 10° NNE 21:58:37 85° ESE 22:00:10 39° S
COSMOS 2406 3.2 21:59:10 21° SSW 22:03:05 84° WNW 22:08:50 10° NNE
Cosmos 1842 3.0 22:02:55 53° SE 22:03:25 62° E 22:06:52 10° NNE
USA 59 Rocket -0.8 22:10:24 46° WSW 22:11:11 74° NW 22:14:07 10° NE
Cosmos 2333 Rocket 2.2 22:07:05 10° NNW 22:12:51 87° ENE 22:15:54 29° SSE
Cosmos 1455 4.0 22:13:19 10° NE 22:14:51 13° ENE 22:15:31 13° E
Cosmos 1300 2.9 22:14:21 10° N 22:17:24 43° ENE 22:17:49 40° E
Cosmos 1151 Rocket 2.9 22:19:28 43° SSE 22:20:43 71° E 22:24:56 10° NNE
ALOS 2 2.8 22:19:44 38° SSW 22:21:11 60° W 22:25:33 10° NNW
NOSS 2-1 (E) 2.9 22:21:20 41° WSW 22:22:17 69° NW 22:25:18 10° NE
Cosmos 1666 Rocket 4.3 22:18:52 10° N 22:23:03 44° ENE 22:24:54 28° SE
PSLV R/B 4.1 22:23:36 10° NNE 22:27:24 53° E 22:28:13 43° SE
Cosmos 2219 Rocket 2.6 22:23:11 10° NNW 22:28:46 60° NE 22:32:40 20° SE
Cosmos 923 Rocket 4.3 22:27:15 34° SSE 22:29:15 53° ESE 22:34:26 10° NNE
Iridium 45 4.5 22:26:17 10° N 22:29:38 68° E 22:30:11 55° SE
Cosmos 2333 4.2 22:24:49 10° NNW 22:30:31 78° ENE 22:33:47 26° SE
Meteor 2-4 Rocket 3.9 22:30:51 28° SSW 22:33:55 70° WNW 22:39:47 10° N
ATLAS CENTAUR R/B 4.4 22:32:19 10° NW 22:34:22 14° NNW 22:36:27 10° NNE
Cosmos 1980 Rocket 4.4 22:35:23 10° W 22:36:43 11° W 22:38:03 10° WSW
Sich 1 3.9 22:33:13 10° NNW 22:37:08 37° W 22:38:23 30° SW
Cosmos 1727 Rocket 4.2 22:34:09 30° SSE 22:37:17 64° E 22:43:24 10° NNE
USA 234 3.9 22:31:18 10° ENE 22:37:40 57° N 22:44:01 10° W
NOSS 2-1 (D) 3.8 22:36:15 23° W 22:37:52 42° NW 22:40:44 10° NE
SL-24 R/B - RUBIN 2 4.4 22:37:01 30° SSW 22:40:12 65° SE 22:45:57 10° NE
CZ-2C R/B 4.0 22:36:30 12° ESE 22:40:34 32° ENE 22:45:07 10° N
Cosmos 1680 Rocket 3.9 22:39:24 33° SSE 22:41:19 50° ESE 22:46:21 10° NNE
Cosmos 1371 Rocket 4.1 22:37:11 10° NNW 22:42:35 76° ENE 22:45:27 28° SE
Meteor 2-19 Rocket 4.4 22:40:36 32° S 22:43:37 76° E 22:49:41 10° NNE
PSLV R/B 3.5 22:41:16 10° NNE 22:45:27 76° WNW 22:46:52 40° SSW
NOSS 3-1 (A) 4.4 22:40:49 10° W 22:45:44 43° NNW 22:51:49 10° NE
Cosmos 2056 Rocket 3.5 22:42:54 10° NNW 22:48:16 85° ENE 22:50:55 30° SSE
SL-16 R/B 3.0 22:44:01 10° NW 22:49:08 36° WSW 22:51:04 28° SW
Cosmos 2100 Rocket 4.1 22:43:34 10° N 22:49:55 75° ENE 22:53:28 28° SSE
Cosmos 1241 Rocket 4.5 22:44:01 10° NW 22:50:35 87° SW 22:55:04 21° SE
Cosmos 1470 Rocket 4.3 22:46:56 10° N 22:51:05 45° ENE 22:53:02 27° SE
Cosmos 1707 3.6 22:51:13 27° WSW 22:52:03 31° WNW 22:55:07 10° N
H-2A R/B 3.3 22:50:24 25° ESE 22:52:14 41° ENE 22:55:55 10° N
Cosmos 1624 Rocket 3.9 22:47:02 10° NNW 22:52:17 88° ENE 22:54:51 31° SSE
Geosat FO 4.1 22:54:35 65° WSW 22:54:35 65° WSW 22:57:35 10° NW
NOSS 2-1 (C) 4.4 22:55:40 15° W 22:57:50 31° NW 23:00:34 10° NNE
Cosmos 2322 Rocket 2.6 22:52:49 10° NW 22:58:16 49° WSW 23:00:24 33° SSW
Cosmos 1633 Rocket 3.0 22:54:50 10° N 22:59:13 80° E 23:00:47 39° SSE
Cosmos 1802 Rocket 4.3 22:53:28 10° N 22:59:46 64° ENE 23:03:51 23° SSE
Cosmos 44 Rocket 4.4 22:58:56 10° NNW 23:03:30 43° NE 23:08:09 10° ESE
Cosmos 1459 Rocket 4.0 22:57:28 10° N 23:03:38 83° E 23:07:06 28° SSE
COSMOS 2428 3.5 22:58:21 10° NNW 23:03:55 49° NE 23:09:27 10° SE
Cosmos 1470 4.3 23:04:08 10° NW 23:06:46 20° W 23:07:19 19° W
Iridium 51 4.0 23:03:43 10° N 23:07:21 80° E 23:08:15 49° SSE
Meteor 2-10 Rocket 3.7 23:02:24 10° NNW 23:08:10 85° W 23:11:08 31° S
Cosmos 1000 Rocket 4.4 23:08:01 30° S 23:11:13 82° E 23:17:26 10° NNE
Cosmos 1725 Rocket 4.1 23:08:05 10° N 23:14:17 70° ENE 23:18:17 23° SSE
GP-B 3.8 23:10:45 10° N 23:14:56 44° W 23:16:32 30° SW
Cosmos 1515 Rocket 4.3 23:14:53 28° SE 23:16:36 42° E 23:20:45 10° NNE
Cosmos 2360 Rocket 2.7 23:12:33 10° NW 23:17:47 41° WSW 23:19:47 30° SSW
Cosmos 2173 Rocket 4.0 23:11:59 10° NNW 23:18:22 76° W 23:21:47 29° S
Cosmos 1758 3.1 23:19:05 10° N 23:22:56 82° ENE 23:24:09 42° SSE
ASTEX 1 3.9 23:19:03 10° N 23:23:49 49° WNW 23:26:06 28° SW
CENTAUR R/B 3.4 23:16:37 10° NW 23:24:39 58° SW 23:31:24 19° SSE
Cosmos 1328 Rocket 3.5 23:23:10 39° SSW 23:24:42 76° WNW 23:29:03 10° N
ATLAS 3B R/B 3.3 23:17:27 10° WSW 23:24:57 64° NW 23:32:49 10° NE
USA 229 DEB 3.7 23:20:46 18° SW 23:25:30 75° NW 23:32:28 10° NE
USA 229 3.7 23:20:54 18° SW 23:25:36 76° NW 23:32:33 10° NE
GEOS 3 Rocket 3.5 23:21:48 15° SE 23:26:04 86° SW 23:31:15 10° NW
CZ-2C R/B 3.8 23:24:02 10° NNE 23:29:42 51° E 23:32:57 24° SSE
H-2A R/B 4.3 23:28:23 10° NE 23:30:46 15° E 23:33:06 10° SE
Cosmos 2082 Rocket 4.4 23:27:53 10° W 23:32:04 21° NW 23:36:17 10° NNE
In-Cosmos 22 4.3 23:31:00 30° SSW 23:34:00 75° WNW 23:39:48 10° N
Cosmos 2123 Rocket 4.0 23:30:43 28° S 23:34:20 84° E 23:40:41 10° N
Cosmos 2233 Rocket 4.2 23:29:21 10° N 23:35:35 69° ENE 23:40:07 19° SSE
Cosmos 2112 Rocket 4.2 23:41:11 27° SW 23:44:02 67° WNW 23:49:16 10° NNE
Cosmos 1455 2.5 23:44:38 10° NNW 23:47:02 31° W 23:47:02 31° W
Cosmos 2237 Rocket 3.2 23:43:45 10° NNW 23:49:12 46° NE 23:54:38 10° SE
SL-14 R/B 3.6 23:53:45 34° SW 23:55:06 52° WNW 23:58:55 10° N
CZ-2D R/B 4.2 23:51:19 10° NE 23:55:11 19° E 23:59:01 10° SE
